Regional Weather Roundup
Issued by NWS

Home | Current Version | Previous Version | Text Only | Print | Product List | Glossary On
Versions: 1 2 3 4 5 6 7 8 9 10 11 12 13 14 15 16 17 18 19 20 21 22 23 24 25 26 27 28 29 30 31 32 33 34 35 36 37 38 39 40 41 42 43 44 45 46 47 48 49 50
000
ASUS43 KDMX 300707
RWRIA

WEATHER ROUNDUP FOR IOWA
NATIONAL WEATHER SERVICE DES MOINES IA
200 AM CDT SAT AUG 30 2014

NOTE: "FAIR" INDICATES FEW OR NO CLOUDS BELOW 12,000 FEET WITH NO
SIGNIFICANT WEATHER AND/OR OBSTRUCTIONS TO VISIBILITY.

* - THESE STATIONS ARE NOT NWS STATIONS...THUS NOT UNDER NWS
QUALITY CONTROL.  THEY ALSO DO NOT REPORT WEATHER SUCH
AS PRECIPITATION OR FOG.

IAZ001>003-012>014-020>022-031>034-043>046-300800-
   NORTHWEST IOWA

CITY           SKY/WX    TMP DP  RH WIND       PRES   REMARKS
CARROLL *      CLOUDY    64  64 100 CALM      29.82S
CHEROKEE *     CLOUDY    64  64 100 CALM      29.84R
DENISON *      MOCLDY    63  63 100 CALM      29.82S FOG
LE MARS *        N/A     66  64  94 CALM      29.84S
ORANGE CITY *  CLEAR     64  61  88 NW6       29.84S FOG
SHELDON *      CLOUDY    63  63 100 NW5       29.83S FOG
SIOUX CITY     PTCLDY    64  63  96 W6        29.85
SPENCER        PTCLDY    62  60  93 W9        29.82R FOG
STORM LAKE *   CLOUDY    66  66 100 W13       29.83S FOG
$$

IAZ055>058-069>071-079>083-090>094-300800-
   SOUTHWEST IOWA

CITY           SKY/WX    TMP DP  RH WIND       PRES   REMARKS
ATLANTIC *     CLOUDY    66  66 100 SW5       29.83F FOG
AUDUBON *      PTCLDY    66  64  94 CALM      29.85R
CLARINDA *     CLEAR     64  64 100 SW3       29.87R
COUNCIL BLFS * CLEAR     64  64 100 W5        29.85R FOG
CRESTON *      CLEAR     64  64 100 CALM      29.85S FOG
HARLAN  *      CLOUDY    66  66 100 CALM      29.88R FOG
LAMONI         PTCLDY    66  64  93 SW7       29.84S
RED OAK *      CLEAR     66  64  94 W7        29.85R
SHENANDOAH *   CLEAR     64  64 100 CALM      29.86R
$$

IAZ047>049-059>061-072>074-084-300800-
   CENTRAL IOWA

CITY           SKY/WX    TMP DP  RH WIND       PRES   REMARKS
AMES           LGT RAIN  67  66  97 W6        29.79S
ANKENY *       CLOUDY    68  66  94 W13       29.79S
CHARITON *     MOCLDY    66  64  94 SW5       29.83R
DES MOINES     CLOUDY    69  66  90 SW13      29.79F
GRINNELL*      LGT RAIN  68  66  94 SW7       29.80F
KNOXVILLE *    CLOUDY    66  64  94 S7        29.80S
MARSHALLTOWN   CLOUDY    68  66  93 SW6       29.77F
PELLA *        CLOUDY    66  64  94 S6        29.81F
PERRY *        CLOUDY    66  64  94 W6        29.82R
$$

IAZ004>006-015-016-023>025-035-036-300800-
   NORTH CENTRAL IOWA

CITY           SKY/WX    TMP DP  RH WIND       PRES   REMARKS
ALGONA *       CLOUDY    66  66 100 W5        29.80S
CLARION *      CLOUDY    68  68 100 W7        29.78F
ESTHERVILLE    MOCLDY    65  65 100 CALM      29.81S FOG
FORT DODGE *   CLOUDY    66  64  94 W5        29.81S
MASON CITY     CLOUDY    67  66  97 W3        29.79F
FOREST CITY *  PTCLDY    63  63 100 SW3       29.78S FOG
IOWA FALLS *   CLOUDY    68  66  94 SW7       29.79S
$$

IAZ007>011-017>019-026>030-037>042-050>054-066-300800-
   NORTHEAST IOWA

CITY           SKY/WX    TMP DP  RH WIND       PRES   REMARKS
CEDAR RAPIDS   LGT RAIN  70  70 100 S12       29.78F FOG
CHARLES CITY * CLOUDY    68  66  94 S5        29.78F FOG
CLINTON *      PTCLDY    70  66  88 S6        29.83F
DECORAH *      CLOUDY    66  66 100 CALM      29.77F FOG
DUBUQUE        CLOUDY    70  69  97 SW10      29.80S
MONTICELLO *   CLOUDY    72  72 100 SW12      29.79F
OELWEIN *      CLOUDY    68  68 100 S7        29.78F FOG
WATERLOO       CLOUDY    68  66  93 SW8       29.76F
$$

IAZ064-065-067-068-078-300800-
   EAST CENTRAL IOWA

CITY           SKY/WX    TMP DP  RH WIND       PRES   REMARKS
DAVENPORT      PTCLDY    70  68  93 S10       29.82F
IOWA CITY      LGT RAIN  71  70  96 S8        29.80F
MT. PLEASANT * MOCLDY    72  70  94 W10       29.85R
MUSCATINE *    LGT RAIN  72  70  94 SW23G32   29.84R
QUAD CITIES    PTCLDY    71  68  90 S8        29.81F
$$

IAZ062-063-075>077-085>089-095>099-300800-
   SOUTHEAST IOWA

CITY           SKY/WX    TMP DP  RH WIND       PRES   REMARKS
BURLINGTON     LGT RAIN  71  71 100 S14       29.83S
FAIRFIELD *    CLOUDY    66  64  94 SW6       29.83F
FORT MADISON * PTCLDY    73  72  94 S6        29.84S
KEOKUK *       MOCLDY    72  72 100 S10       29.83S
OSKALOOSA *      N/A     64  64 100 SW5       29.81F
CENTERVILLE *  CLEAR     66  66 100 S6        29.85F
OTTUMWA        CLOUDY    65  63  93 SW5       29.81F
WASHINGTON *   MOCLDY    68  68 100 SW12      29.82F
$$

ABBREVIATIONS USED IN REMARKS
   TC - TEMPERATURES IN CELSIUS
  WCI - WIND CHILL INDEX
   HX - HEAT INDEX
  VSB - VISIBILITY
$$




USA.gov is the U.S. government's official web portal to all federal, state and local government web resources and services.